Regional Weather Roundup
Issued by NWS

Home | Current Version | Previous Version | Graphics & Text | Print | Product List | Glossary On
Versions: 1 2 3 4 5 6 7 8 9 10 11 12 13 14 15 16 17 18 19 20 21 22 23 24 25 26 27 28 29 30 31 32 33 34 35 36 37 38 39 40 41 42 43 44 45 46 47 48 49 50
000
ASUS43 KLSX 251307
RWRMO

WEATHER SUMMARY FOR MISSOURI
NATIONAL WEATHER SERVICE SPRINGFIELD MO
700 AM CST SAT FEB 25 2017

NOTE: "FAIR" INDICATES FEW OR NO CLOUDS BELOW 12,000 FEET WITH NO
       SIGNIFICANT WEATHER AND/OR OBSTRUCTIONS TO VISIBILITY.
       CURRENT SKY AND/OR WEATHER CONDITIONS ARE NOT AVAILABLE FOR
       CHILLICOTHE AND FARMINGTON.

MOZ001>031-035>038-043-044-053-054-251400-
...NORTHERN AND WESTERN MISSOURI...

CITY           SKY/WX    TMP DP  RH WIND       PRES   REMARKS
KANSAS CTY INT PTCLDY    19  15  84 W7        30.12R WCI  10
KANSAS C DTWN  CLEAR     24  15  68 NW8       30.14R WCI  15
LEE`S SUMMIT   CLEAR     23  14  68 NW9       30.12R WCI  13
ST JOSEPH      CLEAR     17  13  84 W5        30.14R WCI  10
CHILLICOTHE      N/A     20  12  71 NW7       30.09S WCI  11
KIRKSVILLE     PTCLDY    19  13  77 W12       30.03R WCI   7

$$
MOZ066>068-077>081-088>096-101>105-251400-
...SOUTHWEST MISSOURI...

CITY           SKY/WX    TMP DP  RH WIND       PRES   REMARKS
SPRINGFIELD    PTCLDY    21  16  81 NW7       30.09S WCI  12
JOPLIN         CLEAR     21  18  88 NW8       30.17R WCI  11
BRANSON        CLEAR     23  16  74 NW8       30.10S WCI  14

$$
MOZ032>034-039>042-045>050-055>058-069>072-251400-
...CENTRAL MISSOURI...

CITY           SKY/WX    TMP DP  RH WIND       PRES   REMARKS
COLUMBIA       CLEAR     24  15  68 NW16G23   30.06R WCI  11
JEFFERSON CITY PTCLDY    25  16  68 W13       30.09R WCI  14
ROLLA          CLOUDY    24  16  71 W16       30.03R WCI  11
SEDALIA        CLEAR     23  14  68 NW12      30.10R WCI  12
WHITEMAN AFB   CLEAR     22  15  73 NW9       30.10R WCI  12
WARRENSBURG    CLEAR     23  16  74 NW7       30.12R WCI  15
OSAGE BEACH    MOCLDY    25  16  68 NW8       30.10R WCI  16

$$
MOZ051-052-059>065-251400-
...EAST CENTRAL MISSOURI...

CITY           SKY/WX    TMP DP  RH WIND       PRES   REMARKS
ST LOUIS INTL  MOCLDY    28  14  55 NW23G31   30.00R WCI  14
SPIRIT OF STL  MOCLDY    27  15  61 W18       30.02R WCI  14
ST CHARLES     MOCLDY    28  15  58 NW22G31   30.00R WCI  14

$$
MOZ072>076-082>087-097>100-106>115-251400-
...SOUTH CENTRAL AND SOUTHEAST MISSOURI...

CITY           SKY/WX    TMP DP  RH WIND       PRES   REMARKS
CAPE GIRARDEAU MOCLDY    30  17  58 W12       30.03R WCI  20
FARMINGTON     CLOUDY    27  17  66 W10G18    30.01R WCI  17
POPLAR BLUFF   CLEAR     30  17  58 NW10      30.05R WCI  21
WEST PLAINS    CLEAR     25  15  66 NW12G24   30.06R WCI  14

$$


USA.gov is the U.S. government's official web portal to all federal, state and local government web resources and services.